Regional Weather Roundup
Issued by NWS

Home | Current Version | Previous Version | Text Only | Print | Product List | Glossary Off
Versions: 1 2 3 4 5 6 7 8 9 10 11 12 13 14 15 16 17 18 19 20 21 22 23 24 25 26 27 28 29 30 31 32 33 34 35 36 37 38 39 40 41 42 43 44 45 46 47 48 49 50

000
ASUS43 KMPX 182110
RWRMN
WEATHER ROUNDUP FOR MINNESOTA
NATIONAL WEATHER SERVICE TWIN CITIES/CHANHASSEN MN
400 PM CDT FRI AUG 18 2017


NOTE: "FAIR" INDICATES FEW OR NO CLOUDS BELOW 12,000 FEET WITH NO
SIGNIFICANT WEATHER AND/OR OBSTRUCTIONS TO VISIBILITY. N/A MEANS
CURRENT SKY AND/OR WEATHER CONDITIONS ARE NOT AVAILABLE.

MNZ060>063-068>070-182200-
   Twin Cities Metro

CITY           SKY/WX    TMP DP  RH WIND       PRES   REMARKS
TWIN CITIES    CLOUDY    73  62  68 W8        29.89F
ST PAUL        CLOUDY    70  63  78 VRB5      29.90S
CRYSTAL        CLOUDY    73  60  63 W9        29.87F
BLAINE         PTSUNNY   75  63  64 W8        29.89S
LAKEVILLE      MOSUNNY   70  63  78 CALM      29.91S
EDEN PRAIRIE   PTSUNNY   72  62  71 SW6       29.89F
SOUTH ST PAUL  CLOUDY    70  63  78 W5        29.90S
LAKE ELMO      FAIR      70  63  78 W7        29.91S
$$
MNZ001>005-007-008-013>017-022>024-027-028-182200-
   Northwest Minnesota

CITY           SKY/WX    TMP DP  RH WIND       PRES   REMARKS
BEMIDJI        CLOUDY    77  55  45 W6        29.85R
HALLOCK        SUNNY     82  46  28 NW16      29.81S
ROSEAU         MOSUNNY   79  61  53 W9G16     29.81S
WARROAD        SUNNY     79  63  57 W8        29.81F
THIEF RVR FALL PTSUNNY   77  53  43 W14       29.85S
CROOKSTON      SUNNY     81  54  39 NW10      29.84S
FOSSTON        LGT RAIN  70  59  68 W8        29.87R
DETROIT LAKES  MOSUNNY   72  55  56 SW5       29.90R
MOORHEAD       SUNNY     77  61  57 W6        29.87R
PARK RAPIDS    TSTM      61  56  83 SW13      29.90R
MAHNOMEN       FAIR      61  57  87 S9        29.88R
$$
MNZ006-009>011-018-025>026-182200-
   North Central Minnesota

CITY           SKY/WX    TMP DP  RH WIND       PRES   REMARKS
BAUDETTE       CLOUDY    79  58  48 N9        29.80F
FLAG ISLAND    CLOUDY    81  54  39 CALM      29.77F
INTL FALLS     SUNNY     78  56  46 NW9       29.79F
WASKISH        CLOUDY    75  61  60 SW7       29.81F THUNDER
BIG FORK       PTSUNNY   81  57  44 SW8       29.81F
LONGVILLE      CLOUDY    66  59  77 SW7       29.88R
GRAND RAPIDS   CLOUDY    76  60  57 W7        29.86S
CRANE LAKE     SUNNY     75  55  50 SW5       29.82F
ORR            CLOUDY    75  52  43 W3        29.79F
COOK           CLOUDY    75  54  46 CALM      29.83S
WALKER         MOCLDY    67  58  72 SW16G24   29.86R
$$
MNZ012-019>021-037-182200-
   Northeast Minnesota

CITY           SKY/WX    TMP DP  RH WIND       PRES   REMARKS
DULUTH         CLOUDY    69  60  73 W7        29.85F
ELY            MOSUNNY   73  55  53 W8        29.82F
HIBBING        CLOUDY    73  57  57 W6        29.83F
EVELETH        CLOUDY    73  57  57 SW5       29.85F
DULUTH HARBOR  CLOUDY    72  66  83 S6        29.83F
TWO HARBORS    CLOUDY    73  64  73 SW3       29.82S
GRAND MARAIS     N/A     66  62  87 W9        29.80S
G MARAIS ARPRT CLOUDY    66  54  63 NW5       29.84S
$$
MNZ029>031-032-039>041-046>048-054>057-064-182200-
   West Central Minnesota

CITY           SKY/WX    TMP DP  RH WIND       PRES   REMARKS
FERGUS FALLS   CLOUDY    72  61  68 CALM      29.87F
WHEATON        CLOUDY    70  59  68 N3        29.89F
MORRIS         CLOUDY    72  64  78 NE7       29.87F
ALEXANDRIA     CLOUDY    66  60  81 CALM      29.90F
ELBOW LAKE     CLOUDY    68  62  83 E5        29.89S HAZE
WADENA         CLOUDY    72  55  56 SW7       29.89S
GLENWOOD       PTSUNNY   70  63  78 NE7       29.90F
APPLETON       CLOUDY    73  63  68 E7        29.85F
BENSON         CLOUDY    73  61  64 E5        29.88F
ORTONVILLE     CLOUDY    72  61  68 MISG      29.86S
MADISON        CLOUDY    73  66  78 E10       29.83F THUNDER
WILLMAR        FAIR      73  61  64 SE5       29.90F
$$
MNZ033>034-036-042>043-049>051-058-059-182200-
   Central Minnesota

CITY           SKY/WX    TMP DP  RH WIND       PRES   REMARKS
ST CLOUD       CLOUDY    75  61  61 SW10      29.87F
SAUK CENTRE    FAIR      68  58  70 N6        29.89F
PAYNESVILLE    CLOUDY    73  60  62 SE5       29.89F
AITKIN         CLOUDY    72  61  68 SW6       29.86R
PINE RIVER     PTSUNNY   63  57  82 SW5       29.93R
BRAINERD       TSTM      60  54  80 N9G20     29.91R
STAPLES        CLOUDY    70  54  56 SW9       29.89S
LONG PRAIRIE   LGT RAIN  63  57  82 CALM      29.88F
LITTLE FALLS   CLOUDY    66  54  63 W7        29.88F
LITCHFIELD     CLOUDY    73  63  68 CALM      29.90F
BUFFALO        CLOUDY    73  61  68 SW7       29.90F
MAPLE LAKE     CLOUDY    75  65  73 SW3       29.90F
HUTCHINSON     SUNNY     73  64  72 SW6       29.92S
$$
MNZ037-044-045-052-053-182200-
   East Central Minnesota

CITY           SKY/WX    TMP DP  RH WIND       PRES   REMARKS
PRINCETON      PTSUNNY   75  63  64 SW7       29.88F
MORA           CLOUDY    70  61  73 W9        29.89F
CAMBRIDGE      PTSUNNY   73  61  64 CALM      29.88F
RUSH CITY      CLOUDY    69  63  80 SW5       29.88F
MOOSE LAKE     CLOUDY    70  61  73 CALM      29.84F
HINCKLEY       FAIR      70  66  88 SW5       29.88S
CLOQUET        CLOUDY    72  59  64 W3        29.85F
MCGREGOR       MOSUNNY   75  59  57 W8        29.86F
$$
MNZ071>073-080-081-089-090-097-098-182200-
   Southwest Minnesota

CITY           SKY/WX    TMP DP  RH WIND       PRES   REMARKS
MONTEVIDEO     MOSUNNY   75  63  64 SE8       29.87F
GRANITE FALLS  SUNNY     77  64  64 E7        29.89F
CANBY          CLOUDY    76  60  59 CALM      29.85F
MARSHALL       CLOUDY    78  61  55 S10       29.87S
REDWOOD FALLS  MOSUNNY   76  62  62 SE6       29.89S
OLIVIA         PTSUNNY   73  63  68 S6        29.89S
PIPESTONE      MOSUNNY   77  61  57 SW10      29.90S
WINDOM         SUNNY     77  59  53 SW3       29.90F
WORTHINGTON    PTSUNNY   76  62  62 S8        29.91F
JACKSON        MOSUNNY   75  61  60 CALM      29.92S
TRACY          SUNNY     78  64  61 S10       29.88F
SLAYTON        SUNNY     77  56  48 S9        29.92F HAZE
$$
MNZ065>067-074>077-082>085-091>093-182200-
   South Central Minnesota

CITY           SKY/WX    TMP DP  RH WIND       PRES   REMARKS
MANKATO        MOSUNNY   71  59  65 S6        29.92S
NEW ULM        CLOUDY    73  59  60 SE7       29.90F
ST JAMES       SUNNY     75  61  60 SE5       29.92S
FAIRMONT       SUNNY     74  60  61 MISG      29.92S
GLENCOE        CLOUDY    73  64  74 E3        29.90F
FARIBAULT      MOSUNNY   73  63  68 S5        29.92R
OWATONNA       SUNNY     73  61  64 CALM      29.92S
WASECA         SUNNY     72  57  60 S5        29.94R
ALBERT LEA     SUNNY     73  63  68 SE6       29.92F
$$
MNZ078>079-086>088-094>096-182200-
   Southeast Minnesota

CITY           SKY/WX    TMP DP  RH WIND       PRES   REMARKS
ROCHESTER      CLOUDY    64  61  90 SW8       29.93F
RED WING       CLOUDY    68  61  77 W8        29.89F
STANTON        MOSUNNY   71  62  74 SE3       29.90F
DODGE CENTER   CLOUDY    68  61  77 S7        29.92F
WINONA         CLOUDY    70  63  78 NW7       29.90F
AUSTIN         PTSUNNY   66  59  77 CALM      29.92F
PRESTON        CLOUDY    65  59  80 N6        29.94S
$$
ABBREVIATIONS USED IN REMARKS
   TC - TEMPERATURES IN CELSIUS
  WCI - WIND CHILL INDEX
   HX - HEAT INDEX
  VSB - VISIBILITY
$$




USA.gov is the U.S. government's official web portal to all federal, state and local government web resources and services.